Regional Weather Roundup
Issued by NWS Cleveland, OH

Home | Current Version | Previous Version | Graphics & Text | Print | Product List | Glossary On
Versions: 1 2 3 4 5 6 7 8 9 10 11 12 13 14 15 16 17 18 19 20 21 22 23 24 25 26 27 28 29 30 31 32 33 34 35 36 37 38 39 40 41 42 43 44 45 46 47 48 49 50
000
ASUS41 KCLE 250710
RWRCLE
OHIO REGIONAL WEATHER ROUNDUP
NATIONAL WEATHER SERVICE WILMINGTON, OH
300 AM EDT FRI MAY 25 2018

NOTE: "FAIR" INDICATES FEW OR NO CLOUDS BELOW 12,000 FEET WITH NO
SIGNIFICANT WEATHER AND/OR OBSTRUCTIONS TO VISIBILITY.

OHZ001>008-015>018-024>027-034-035-043-044-250800-
   NORTHWEST OHIO

CITY           SKY/WX    TMP DP  RH WIND       PRES   REMARKS
DEFIANCE       FAIR      57  53  86 CALM      30.06F
FINDLAY        FAIR      60  53  77 CALM      30.06F
TOLEDO EXPRESS FAIR      58  54  86 CALM      30.05F
TOLEDO EXEC    FAIR      62  49  62 SE3       30.06F
LIMA           FAIR      59  51  75 CALM      30.07F
$$

OHZ009>014-019>023-028>033-038-089-250800-
   NORTHEAST OHIO

CITY           SKY/WX    TMP DP  RH WIND       PRES   REMARKS
CLE-HOPKINS    FAIR      57  51  80 CALM      30.09F
CLE-LAKEFRONT  FAIR      64  48  56 SE10      30.05F
CUY CO. ARPT   NOT AVBL
LORAIN-ELYRIA  FAIR      56  48  74 CALM      30.08F
ASHTABULA      FAIR      52  51  97 CALM      30.08F
AKRON-CANTON   FAIR      60  50  69 CALM      30.09F
WOOSTER        FAIR      54  52  93 CALM      30.09F
MANSFIELD      FAIR      59  54  83 CALM      30.09F
YOUNGSTOWN     FAIR      54  51  90 E5        30.08F
$$

OHZ042-051>053-060>062-070>072-077>081-250800-
  SOUTHWEST OHIO

CITY           SKY/WX    TMP DP  RH WIND       PRES   REMARKS
CINC-COVINGTON FAIR      60  55  83 CALM      30.05F
CINC-LUNKEN    FAIR      59  59 100 CALM      30.06F
HAMILTON       FAIR      58  57  97 CALM      30.06F
DAYTON         FAIR      63  53  70 CALM      30.07F
WRIGHT-PAT AFB FOG       57  54  88 CALM      30.06F VSB 7/8
DAYTON GENERAL FAIR      64  53  67 CALM      30.05F
WILMINGTON     FAIR      57  55  93 CALM      30.06F
$$

OHZ036-037-039>041-045>050-054>059-063>069-073>076-082>088-250800-
  CENTRAL AND SOUTHEAST OHIO

CITY           SKY/WX    TMP DP  RH WIND       PRES   REMARKS
COLUMBUS       FAIR      61  54  77 CALM      30.06F
OSU AIRPORT    FAIR      57  53  86 CALM      30.06F
BOLTON FIELD   FAIR      57  55  93 CALM      30.07F
RICKENBACK AFB FAIR      60  55  83 MISG      30.06F
NEWARK         FAIR      56  55  97 CALM      30.06F
MARION         FAIR      57  52  83 CALM      30.08F
LANCASTER      FAIR      57  55  93 CALM      30.07F
ZANESVILLE     FAIR      57  54  89 CALM      30.07F
NEW PHILLY     FAIR      55  53  93 CALM      30.09F
$$




USA.gov is the U.S. government's official web portal to all federal, state and local government web resources and services.